Content
SEND FEEDBACK

Daily
Averages
Monthly
Summary
United States of America

TARRANTS, MISSOURI


Home > North America > United States > Missouri
Elevation: 709 feet     Latitude: 39 22N     Longitude: 091 10W

WEATHER
 
SELECT A DAY
Number of Records: 318,469;   Date Range: 7/17/01 - 7/20/14
 
SHARE

PRINT THIS DATA

[ ← Previous Day ]
WEATHER ALMANAC - FEBRUARY 13, 2013
[ Next Day → ]
[ °C ]   °F
Weather ElementAverageHighLow
Temperature39.8 °F49.8 °F (2:35 pm)32.4 °F (5:35 am)
Dewpoint29.3 °F32 °F (11:35 pm)27.3 °F (2:15 am)
Humidity67.7 %86 % (5:15 am)44 % (2:35 pm)
Barometer29.84 in29.94 in (12:35 am)29.80 in (1:35 pm)
Wind Speed7 mph15 mph (2:35 pm)
Wind Gust20.7 mph (2:35 pm)
Weather ElementAverage
Visibility10 mi
Wind DirectionSW (229 °)

Weather ElementTotal
Precipitation---
Heating Degree Days23.9 (Base 65)
Averaged from 71 records on February 13, 2013
WEATHER CONDITIONS BREAKOUT
WIND DIRECTION BREAKOUT
WEATHER BY HOUR - FEBRUARY 13, 2013
[ °C ]   °F
Local TimeTemperatureDewpointHumidityBarometerVisibilityWind DirectionWind SpeedGust SpeedPrecipitationEventsConditions
12:35 AM34.3 °F28.0 °F78 %29.94 in10.0 miWest (270°)3.5 mphClear
12:55 AM34.0 °F27.9 °F78 %29.93 in10.0 miCalmClear
1:15 AM33.8 °F28.2 °F80 %29.93 in10.0 miWest (260°)3.5 mphClear
1:35 AM34.0 °F28.0 °F79 %29.92 in10.0 miWSW (250°)3.5 mphClear
1:55 AM33.6 °F27.5 °F78 %29.91 in10.0 miWest (270°)3.5 mphClear
2:15 AM33.4 °F27.3 °F78 %29.91 in10.0 miWSW (250°)4.6 mphClear
2:35 AM33.4 °F27.3 °F78 %29.90 in10.0 miWest (260°)3.5 mphClear
2:55 AM33.3 °F27.5 °F79 %29.89 in10.0 miWest (260°)4.6 mphClear
3:15 AM33.8 °F27.7 °F78 %29.88 in10.0 miWest (270°)3.5 mphClear
3:35 AM33.4 °F28.9 °F84 %29.88 in10.0 miSouth (180°)5.8 mphClear
3:55 AM33.3 °F28.9 °F84 %29.88 in10.0 miSW (220°)4.6 mphClear
4:15 AM33.3 °F28.8 °F84 %29.87 in10.0 miSSW (210°)5.8 mphClear
4:35 AM33.1 °F28.4 °F83 %29.87 in10.0 miSW (230°)3.5 mphClear
4:55 AM32.9 °F28.4 °F84 %29.86 in10.0 miSW (230°)3.5 mphClear
5:15 AM32.5 °F28.8 °F86 %29.86 in10.0 miSSW (210°)3.5 mphClear
5:35 AM32.4 °F28.6 °F86 %29.86 in10.0 miSW (220°)4.6 mphClear
5:55 AM32.5 °F28.2 °F84 %29.86 in10.0 miSW (230°)4.6 mphClear
6:15 AM32.9 °F28.0 °F82 %29.85 in10.0 miWSW (240°)5.8 mphClear
6:35 AM33.1 °F27.9 °F81 %29.85 in10.0 miSW (230°)6.9 mphClear
6:55 AM33.1 °F27.7 °F81 %29.85 in10.0 miSW (230°)4.6 mphClear
7:15 AM33.1 °F27.5 °F80 %29.86 in10.0 miWSW (240°)5.8 mphClear
7:35 AM32.7 °F28.0 °F83 %29.86 in10.0 miSSW (210°)5.8 mphClear
7:55 AM34.0 °F28.4 °F80 %29.86 in10.0 miSW (230°)6.9 mphClear
8:15 AM34.9 °F28.8 °F78 %29.86 in10.0 miSW (220°)6.9 mphClear
8:35 AM36.0 °F28.8 °F75 %29.86 in10.0 miSW (230°)5.8 mphClear
8:55 AM36.9 °F28.4 °F71 %29.86 in10.0 miWSW (240°)9.2 mphClear
9:15 AM37.6 °F28.0 °F68 %29.86 in10.0 miWSW (250°)6.9 mphClear
9:35 AM38.5 °F28.2 °F67 %29.85 in10.0 miWSW (250°)8.1 mphClear
9:55 AM39.6 °F29.5 °F67 %29.85 in10.0 miSW (220°)9.2 mphClear
10:15 AM40.5 °F29.5 °F65 %29.85 in10.0 miSW (230°)8.1 mphClear
10:35 AM42.1 °F29.5 °F61 %29.85 in10.0 miWSW (250°)8.1 mphClear
10:55 AM42.1 °F28.4 °F58 %29.85 in10.0 miWSW (250°)11.5 mph16.1 mphClear
11:15 AM42.8 °F29.8 °F60 %29.85 in10.0 miWSW (240°)10.4 mph16.1 mphClear
11:35 AM44.2 °F29.8 °F57 %29.85 in10.0 miWSW (250°)9.2 mphClear
11:55 AM45.0 °F28.6 °F53 %29.84 in10.0 miWSW (250°)11.5 mphClear
12:15 PM45.9 °F28.8 °F51 %29.83 in10.0 miSW (220°)10.4 mphClear
12:35 PM46.6 °F27.5 °F47 %29.82 in10.0 miSW (230°)10.4 mphClear
12:55 PM47.3 °F28.0 °F47 %29.81 in10.0 miWSW (250°)13.8 mphClear
1:15 PM48.2 °F29.8 °F49 %29.81 in10.0 miWSW (240°)10.4 mph17.3 mphClear
1:35 PM48.4 °F27.9 °F45 %29.80 in10.0 miWest (270°)12.7 mphClear
1:55 PM49.3 °F29.1 °F46 %29.80 in10.0 miWSW (240°)12.7 mphClear
2:15 PM49.3 °F28.9 °F45 %29.80 in10.0 miWest (270°)11.5 mphClear
2:35 PM49.8 °F28.6 °F44 %29.80 in10.0 miWSW (250°)15.0 mph20.7 mphClear
2:55 PM49.6 °F29.7 °F46 %29.80 in10.0 miWest (260°)12.7 mphClear
3:15 PM49.5 °F29.3 °F46 %29.81 in10.0 miWest (260°)13.8 mph18.4 mphClear
3:35 PM49.1 °F29.7 °F47 %29.80 in10.0 miWSW (240°)12.7 mph19.6 mphClear
3:55 PM48.6 °F29.1 °F47 %29.81 in10.0 miWest (260°)9.2 mph19.6 mphClear
4:15 PM48.2 °F30.4 °F50 %29.81 in10.0 miWSW (240°)10.4 mphClear
4:35 PM47.5 °F30.9 °F53 %29.81 in10.0 miWSW (240°)6.9 mphClear
4:55 PM47.5 °F30.7 °F52 %29.82 in10.0 miWSW (240°)6.9 mphClear
5:15 PM46.8 °F30.9 °F54 %29.82 in10.0 miWSW (240°)8.1 mphClear
5:35 PM45.5 °F31.1 °F57 %29.82 in10.0 miWSW (240°)5.8 mphClear
5:55 PM44.8 °F31.1 °F59 %29.82 in10.0 miWSW (240°)6.9 mphClear
6:15 PM43.2 °F31.1 °F62 %29.82 in10.0 miSW (220°)4.6 mphClear
6:35 PM42.6 °F31.1 °F64 %29.82 in10.0 miSW (230°)4.6 mphClear
6:55 PM41.9 °F30.6 °F64 %29.82 in10.0 miWSW (240°)3.5 mphClear
7:15 PM40.8 °F30.6 °F67 %29.82 in10.0 miSW (220°)3.5 mphClear
7:35 PM41.4 °F30.2 °F65 %29.83 in10.0 miSSW (210°)3.5 mphClear
7:55 PM37.4 °F30.2 °F75 %29.83 in10.0 miSouth (190°)3.5 mphClear
8:15 PM37.2 °F30.0 °F75 %29.83 in10.0 miSSW (200°)3.5 mphClear
8:35 PM37.0 °F30.0 °F76 %29.83 in10.0 miSouth (180°)4.6 mphClear
8:55 PM37.8 °F30.6 °F75 %29.83 in10.0 miSouth (190°)3.5 mphClear
9:15 PM38.5 °F30.7 °F74 %29.83 in10.0 miSSW (210°)4.6 mphClear
9:35 PM39.0 °F30.7 °F72 %29.82 in10.0 miSSW (210°)5.8 mphClear
9:55 PM39.2 °F31.1 °F73 %29.82 in10.0 miSSW (210°)6.9 mphClear
10:15 PM39.9 °F31.1 °F71 %29.82 in10.0 miSSW (200°)6.9 mphClear
10:35 PM40.6 °F31.1 °F69 %29.82 in10.0 miSSW (210°)11.5 mphClear
10:55 PM40.1 °F31.1 °F70 %29.82 in10.0 miSSW (210°)8.1 mphClear
11:15 PM39.6 °F31.8 °F74 %29.81 in10.0 miSSW (210°)6.9 mphClear
11:35 PM40.1 °F32.0 °F73 %29.81 in10.0 miSSW (210°)9.2 mphClear
11:55 PM39.9 °F32.0 °F73 %29.80 in10.0 miSSW (200°)8.1 mphClear
Hourly data recorded from KPPQ, located miles away from Tarrants, Missouri







STORIES FROM OUR PARTNERS